Time,TemperatureF,DewpointF,PressureIn,WindDirection,WindDirectionDegrees,WindSpeedMPH,WindSpeedGustMPH,Humidity,HourlyPrecipIn,Conditions,Clouds,dailyrainin,SoftwareType,DateUTC
2013-03-22 00:09:00,5.8,-1.0,30.05,NE,55,0.0,-999.0,73,-99.99,,,0.00,weatherlink.com 1.10,2013-03-22 05:09:00,
2013-03-22 00:24:00,5.4,-2.0,30.05,NE,55,0.0,-999.0,73,-99.99,,,0.00,weatherlink.com 1.10,2013-03-22 05:24:00,
2013-03-22 00:39:00,4.8,-2.0,30.06,NE,55,0.0,-999.0,74,-99.99,,,0.00,weatherlink.com 1.10,2013-03-22 05:39:00,
2013-03-22 00:54:00,4.3,-2.0,30.06,NE,55,0.0,-999.0,74,-99.99,,,0.00,weatherlink.com 1.10,2013-03-22 05:54:00,
2013-03-22 01:08:00,3.9,-3.0,30.06,NE,55,0.0,-999.0,74,-99.99,,,0.00,weatherlink.com 1.10,2013-03-22 06:08:00,
2013-03-22 01:23:00,3.4,-3.0,30.06,NE,55,0.0,-999.0,74,-99.99,,,0.00,weatherlink.com 1.10,2013-03-22 06:23:00,
2013-03-22 01:38:00,2.8,-4.0,30.06,NE,55,0.0,-999.0,74,-99.99,,,0.00,weatherlink.com 1.10,2013-03-22 06:38:00,
2013-03-22 01:53:00,2.4,-4.0,30.06,NE,55,0.0,-999.0,75,-99.99,,,0.00,weatherlink.com 1.10,2013-03-22 06:53:00,
2013-03-22 02:09:00,2.0,-4.0,30.06,NE,55,0.0,-999.0,75,-99.99,,,0.00,weatherlink.com 1.10,2013-03-22 07:09:00,
2013-03-22 02:24:00,1.7,-4.0,30.06,NE,55,0.0,-999.0,76,-99.99,,,0.00,weatherlink.com 1.10,2013-03-22 07:24:00,
2013-03-22 02:39:00,1.3,-5.0,30.06,NE,55,0.0,-999.0,76,-99.99,,,0.00,weatherlink.com 1.10,2013-03-22 07:39:00,
2013-03-22 02:54:00,1.1,-5.0,30.06,NE,55,0.0,-999.0,76,-99.99,,,0.00,weatherlink.com 1.10,2013-03-22 07:54:00,
2013-03-22 03:09:00,0.7,-5.0,30.06,NE,55,0.0,-999.0,77,-99.99,,,0.00,weatherlink.com 1.10,2013-03-22 08:09:00,
2013-03-22 03:24:00,0.5,-5.0,30.06,NE,55,0.0,-999.0,77,-99.99,,,0.00,weatherlink.com 1.10,2013-03-22 08:24:00,
2013-03-22 03:39:00,0.1,-6.0,30.06,NE,55,0.0,-999.0,77,-99.99,,,0.00,weatherlink.com 1.10,2013-03-22 08:39:00,
2013-03-22 03:55:00,0.0,-6.0,30.06,NE,55,0.0,-999.0,77,-99.99,,,0.00,weatherlink.com 1.10,2013-03-22 08:55:00,
2013-03-22 04:09:00,-0.4,-6.0,30.06,NE,55,0.0,-999.0,77,-99.99,,,0.00,weatherlink.com 1.10,2013-03-22 09:09:00,
2013-03-22 04:24:00,-0.6,-6.0,30.06,NE,55,0.0,-999.0,77,-99.99,,,0.00,weatherlink.com 1.10,2013-03-22 09:24:00,
2013-03-22 04:39:00,-1.0,-7.0,30.06,NE,55,0.0,-999.0,77,-99.99,,,0.00,weatherlink.com 1.10,2013-03-22 09:39:00,
2013-03-22 04:54:00,-1.2,-7.0,30.06,NE,55,0.0,-999.0,77,-99.99,,,0.00,weatherlink.com 1.10,2013-03-22 09:54:00,
2013-03-22 05:10:00,-1.6,-7.0,30.06,NE,55,0.0,-999.0,77,-99.99,,,0.00,weatherlink.com 1.10,2013-03-22 10:10:00,
2013-03-22 05:25:00,-2.0,-8.0,30.06,NE,55,0.0,-999.0,77,-99.99,,,0.00,weatherlink.com 1.10,2013-03-22 10:25:00,
2013-03-22 05:40:00,-2.2,-8.0,30.06,NE,55,0.0,-999.0,77,-99.99,,,0.00,weatherlink.com 1.10,2013-03-22 10:40:00,
2013-03-22 05:55:00,-2.4,-8.0,30.06,NE,55,0.0,-999.0,77,-99.99,,,0.00,weatherlink.com 1.10,2013-03-22 10:55:00,
2013-03-22 06:10:00,-2.6,-8.0,30.06,NE,55,0.0,-999.0,77,-99.99,,,0.00,weatherlink.com 1.10,2013-03-22 11:10:00,
2013-03-22 06:25:00,-2.8,-8.0,30.06,NE,55,0.0,-999.0,77,-99.99,,,0.00,weatherlink.com 1.10,2013-03-22 11:25:00,
2013-03-22 06:40:00,-3.3,-9.0,30.07,NE,55,0.0,-999.0,77,-99.99,,,0.00,weatherlink.com 1.10,2013-03-22 11:40:00,
2013-03-22 06:55:00,-3.7,-10.0,30.07,NE,55,0.0,-999.0,76,-99.99,,,0.00,weatherlink.com 1.10,2013-03-22 11:55:00,
2013-03-22 07:11:00,-3.9,-10.0,30.07,NE,55,0.0,-999.0,76,-99.99,,,0.00,weatherlink.com 1.10,2013-03-22 12:11:00,
2013-03-22 07:26:00,-3.9,-9.0,30.08,NE,55,0.0,-999.0,77,-99.99,,,0.00,weatherlink.com 1.10,2013-03-22 12:26:00,
2013-03-22 07:41:00,-3.9,-9.0,30.08,NE,55,0.0,-999.0,77,-99.99,,,0.00,weatherlink.com 1.10,2013-03-22 12:41:00,
2013-03-22 07:56:00,-3.9,-9.0,30.08,NE,55,0.0,-999.0,77,-99.99,,,0.00,weatherlink.com 1.10,2013-03-22 12:56:00,
2013-03-22 08:12:00,-3.3,-8.0,30.07,NE,55,0.0,-999.0,79,-99.99,,,0.00,weatherlink.com 1.10,2013-03-22 13:12:00,
2013-03-22 08:27:00,-2.4,-7.0,30.07,NE,55,0.0,-999.0,80,-99.99,,,0.00,weatherlink.com 1.10,2013-03-22 13:27:00,
2013-03-22 08:42:00,-0.6,-5.0,30.07,NE,55,0.0,-999.0,83,-99.99,,,0.00,weatherlink.com 1.10,2013-03-22 13:42:00,
2013-03-22 08:57:00,2.2,-1.0,30.07,NE,55,0.0,-999.0,85,-99.99,,,0.00,weatherlink.com 1.10,2013-03-22 13:57:00,
2013-03-22 09:11:00,5.4,2.0,30.07,NE,55,0.0,-999.0,87,-99.99,,,0.00,weatherlink.com 1.10,2013-03-22 14:11:00,
2013-03-22 09:26:00,9.2,6.0,30.07,NE,55,0.0,-999.0,87,-99.99,,,0.00,weatherlink.com 1.10,2013-03-22 14:26:00,
2013-03-22 09:41:00,11.4,8.0,30.07,NE,55,0.0,-999.0,86,-99.99,,,0.00,weatherlink.com 1.10,2013-03-22 14:41:00,
2013-03-22 09:56:00,14.0,10.0,30.07,NE,55,0.0,-999.0,84,-99.99,,,0.00,weatherlink.com 1.10,2013-03-22 14:56:00,
2013-03-22 10:12:00,16.7,10.0,30.07,NE,55,0.0,-999.0,76,-99.99,,,0.00,weatherlink.com 1.10,2013-03-22 15:12:00,
2013-03-22 10:27:00,20.2,11.0,30.07,NE,55,0.0,-999.0,67,-99.99,,,0.00,weatherlink.com 1.10,2013-03-22 15:27:00,
2013-03-22 10:42:00,24.5,11.0,30.06,NE,55,0.0,-999.0,56,-99.99,,,0.00,weatherlink.com 1.10,2013-03-22 15:42:00,
2013-03-22 10:57:00,29.1,12.0,30.06,NE,55,0.0,-999.0,50,-99.99,,,0.00,weatherlink.com 1.10,2013-03-22 15:57:00,
2013-03-22 11:13:00,30.9,12.0,30.05,North,5,2.0,-999.0,45,-99.99,,,0.00,weatherlink.com 1.10,2013-03-22 16:13:00,
2013-03-22 11:28:00,33.2,12.0,30.05,West,279,0.0,-999.0,41,-99.99,,,0.01,weatherlink.com 1.10,2013-03-22 16:28:00,
2013-03-22 11:43:00,33.4,12.0,30.05,North,5,0.0,-999.0,42,-99.99,,,0.01,weatherlink.com 1.10,2013-03-22 16:43:00,
2013-03-22 11:58:00,34.9,13.0,30.04,West,273,2.0,-999.0,40,-99.99,,,0.01,weatherlink.com 1.10,2013-03-22 16:58:00,
2013-03-22 12:13:00,35.0,12.0,30.04,North,360,3.0,-999.0,39,-99.99,,,0.01,weatherlink.com 1.10,2013-03-22 17:13:00,
2013-03-22 12:28:00,35.8,13.0,30.04,North,5,0.0,-999.0,39,-99.99,,,0.01,weatherlink.com 1.10,2013-03-22 17:28:00,
2013-03-22 12:43:00,37.2,13.0,30.03,West,271,1.0,-999.0,37,-99.99,,,0.01,weatherlink.com 1.10,2013-03-22 17:43:00,
2013-03-22 12:58:00,38.8,12.0,30.03,West,280,0.0,-999.0,33,-99.99,,,0.01,weatherlink.com 1.10,2013-03-22 17:58:00,
2013-03-22 13:14:00,40.3,12.0,30.02,SW,236,4.0,-999.0,32,-99.99,,,0.01,weatherlink.com 1.10,2013-03-22 18:14:00,
2013-03-22 13:29:00,39.8,15.0,30.02,NNE,28,0.0,-999.0,37,-99.99,,,0.01,weatherlink.com 1.10,2013-03-22 18:29:00,
2013-03-22 13:44:00,39.1,13.0,30.02,NW,313,3.0,-999.0,35,-99.99,,,0.01,weatherlink.com 1.10,2013-03-22 18:44:00,
2013-03-22 13:59:00,39.9,13.0,30.02,WNW,301,0.0,-999.0,33,-99.99,,,0.01,weatherlink.com 1.10,2013-03-22 18:59:00,
2013-03-22 14:14:00,38.9,14.0,30.01,West,270,1.0,-999.0,36,-99.99,,,0.01,weatherlink.com 1.10,2013-03-22 19:14:00,
2013-03-22 14:29:00,38.0,14.0,30.01,West,277,0.0,-999.0,37,-99.99,,,0.01,weatherlink.com 1.10,2013-03-22 19:29:00,
2013-03-22 14:44:00,37.6,12.0,30.01,NE,45,0.0,-999.0,35,-99.99,,,0.01,weatherlink.com 1.10,2013-03-22 19:44:00,
2013-03-22 14:59:00,37.9,12.0,30.01,NNE,13,3.0,-999.0,35,-99.99,,,0.01,weatherlink.com 1.10,2013-03-22 19:59:00,
2013-03-22 15:14:00,38.5,15.0,30.00,NE,54,2.0,-999.0,39,-99.99,,,0.01,weatherlink.com 1.10,2013-03-22 20:14:00,
2013-03-22 15:29:00,39.3,17.0,30.00,North,355,3.0,-999.0,41,-99.99,,,0.01,weatherlink.com 1.10,2013-03-22 20:29:00,
2013-03-22 15:45:00,39.6,15.0,30.00,NE,40,2.0,-999.0,36,-99.99,,,0.01,weatherlink.com 1.10,2013-03-22 20:45:00,
2013-03-22 16:00:00,40.2,15.0,30.01,North,5,2.0,-999.0,36,-99.99,,,0.01,weatherlink.com 1.10,2013-03-22 21:00:00,
2013-03-22 16:14:00,40.2,14.0,30.01,NNW,329,0.0,-999.0,35,-99.99,,,0.01,weatherlink.com 1.10,2013-03-22 21:14:00,
2013-03-22 16:29:00,39.5,14.0,30.01,West,259,2.0,-999.0,36,-99.99,,,0.01,weatherlink.com 1.10,2013-03-22 21:29:00,
2013-03-22 16:44:00,38.3,14.0,30.01,North,10,1.0,-999.0,37,-99.99,,,0.01,weatherlink.com 1.10,2013-03-22 21:44:00,
2013-03-22 16:59:00,37.6,14.0,30.01,North,5,3.0,-999.0,38,-99.99,,,0.01,weatherlink.com 1.10,2013-03-22 21:59:00,
2013-03-22 17:14:00,35.8,13.0,30.02,WNW,283,1.0,-999.0,39,-99.99,,,0.01,weatherlink.com 1.10,2013-03-22 22:14:00,
2013-03-22 17:29:00,34.6,13.0,30.03,NNE,28,1.0,-999.0,41,-99.99,,,0.01,weatherlink.com 1.10,2013-03-22 22:29:00,
2013-03-22 17:45:00,34.3,13.0,30.03,West,270,0.0,-999.0,42,-99.99,,,0.01,weatherlink.com 1.10,2013-03-22 22:45:00,
2013-03-22 18:15:00,34.7,14.0,30.04,West,269,0.0,-999.0,42,-99.99,,,0.01,weatherlink.com 1.10,2013-03-22 23:15:00,
2013-03-22 18:30:00,35.2,14.0,30.03,NNE,26,0.0,-999.0,41,-99.99,,,0.01,weatherlink.com 1.10,2013-03-22 23:30:00,
2013-03-22 18:45:00,34.7,13.0,30.03,NNE,16,0.0,-999.0,41,-99.99,,,0.01,weatherlink.com 1.10,2013-03-22 23:45:00,
2013-03-22 19:00:00,33.7,13.0,30.04,NNE,16,0.0,-999.0,43,-99.99,,,0.01,weatherlink.com 1.10,2013-03-23 00:00:00,
2013-03-22 19:15:00,32.2,13.0,30.05,NNE,16,0.0,-999.0,46,-99.99,,,0.01,weatherlink.com 1.10,2013-03-23 00:15:00,
2013-03-22 19:30:00,30.4,13.0,30.05,NNE,16,0.0,-999.0,48,-99.99,,,0.01,weatherlink.com 1.10,2013-03-23 00:30:00,
2013-03-22 19:45:00,28.7,13.0,30.05,NNE,16,0.0,-999.0,52,-99.99,,,0.01,weatherlink.com 1.10,2013-03-23 00:45:00,
2013-03-22 20:00:00,27.2,12.0,30.05,NNE,16,0.0,-999.0,54,-99.99,,,0.01,weatherlink.com 1.10,2013-03-23 01:00:00,
2013-03-22 20:15:00,26.0,12.0,30.05,NNE,16,0.0,-999.0,56,-99.99,,,0.01,weatherlink.com 1.10,2013-03-23 01:15:00,
2013-03-22 20:31:00,25.0,12.0,30.05,NNE,16,0.0,-999.0,57,-99.99,,,0.01,weatherlink.com 1.10,2013-03-23 01:31:00,
2013-03-22 20:46:00,23.9,12.0,30.05,NNE,16,0.0,-999.0,60,-99.99,,,0.01,weatherlink.com 1.10,2013-03-23 01:46:00,
2013-03-22 21:01:00,23.0,12.0,30.05,NNE,16,0.0,-999.0,62,-99.99,,,0.01,weatherlink.com 1.10,2013-03-23 02:01:00,
2013-03-22 21:16:00,22.4,12.0,30.04,NNE,16,0.0,-999.0,64,-99.99,,,0.01,weatherlink.com 1.10,2013-03-23 02:16:00,
2013-03-22 21:31:00,21.6,11.0,30.05,NNE,16,0.0,-999.0,65,-99.99,,,0.01,weatherlink.com 1.10,2013-03-23 02:31:00,
2013-03-22 21:46:00,21.0,11.0,30.05,NNE,16,0.0,-999.0,65,-99.99,,,0.01,weatherlink.com 1.10,2013-03-23 02:46:00,
2013-03-22 22:01:00,20.2,10.0,30.06,NNE,16,0.0,-999.0,66,-99.99,,,0.01,weatherlink.com 1.10,2013-03-23 03:01:00,
2013-03-22 22:32:00,18.9,10.0,30.05,NNE,16,0.0,-999.0,69,-99.99,,,0.01,weatherlink.com 1.10,2013-03-23 03:32:00,
2013-03-22 22:47:00,18.6,11.0,30.05,NNE,16,0.0,-999.0,72,-99.99,,,0.01,weatherlink.com 1.10,2013-03-23 03:47:00,
2013-03-22 23:02:00,18.3,11.0,30.05,NNE,16,0.0,-999.0,73,-99.99,,,0.01,weatherlink.com 1.10,2013-03-23 04:02:00,
2013-03-22 23:17:00,17.8,10.0,30.05,NNE,16,0.0,-999.0,72,-99.99,,,0.01,weatherlink.com 1.10,2013-03-23 04:17:00,
2013-03-22 23:32:00,17.3,9.0,30.05,NNE,16,0.0,-999.0,71,-99.99,,,0.01,weatherlink.com 1.10,2013-03-23 04:32:00,
2013-03-22 23:47:00,16.9,10.0,30.05,NNE,16,0.0,-999.0,73,-99.99,,,0.01,weatherlink.com 1.10,2013-03-23 04:47:00,